Preview of NWS' New Version of Forecast
This preview is not operational and should not be used for support decisions.

Regional Weather Roundup (RWR)

Issued by Gray - Portland, ME (GYX)

                            
000
ASUS41 KGYX 171305
RWRGYX
WEATHER ROUNDUP FOR MAINE AND NEW HAMPSHIRE
NATIONAL WEATHER SERVICE GRAY ME
900 AM EDT SAT AUG 17 2019

MEZ002-005-006-010-012-015-018-020-021-024-026-027-029-171400-
MAINE
  
CITY           SKY/WX    TMP DP  RH WIND       PRES   REMARKS
PORTLAND       PTSUNNY   69  62  78 S8        30.08F                  
SANFORD        CLOUDY    66  65  96 VRB3      30.08F                  
BAR HARBOR     CLOUDY    62  61  96 S3        30.13R FOG              
WISCASSET      CLOUDY    67  62  84 VRB3      30.11S                  
ROCKLAND       CLOUDY    62  62 100 CALM      30.11S FOG              
FRYEBURG       CLOUDY    68  64  87 VRB5      30.08S                  
LEWISTONAUBURN CLOUDY    66  63  90 S6        30.09S                  
AUGUSTA        CLOUDY    64  63  96 S5        30.10S                  
WATERVILLE     CLOUDY    64  62  93 VRB3      30.08S                  
BANGOR         CLOUDY    62  60  93 S6        30.11F                  
GREENVILLE       N/A     59  58  96 SE7       30.08S                  
MILLINOCKET    RAIN      60  59  96 CALM      30.11S FOG              
HOULTON        PTSUNNY   62  57  83 S6        30.09S                  
PRESQUE ISLE   FAIR      62  59  90 SE6       30.08F                  
FRENCHVILLE    CLOUDY    60  59  96 S5        30.07F                  
CARIBOU        FAIR      63  58  83 SE7       30.07F                  
$$

NHZ002-005-008-009-011-012-014-171400-
NEW HAMPSHIRE
  
CITY           SKY/WX    TMP DP  RH WIND       PRES   REMARKS
PORTSMOUTH     CLOUDY    68  66  94 SE7       30.06F FOG              
ROCHESTER      CLOUDY    67  64  90 SE6       30.07F                  
NASHUA         CLOUDY    70  69  97 CALM      30.07F                  
MANCHESTER     CLOUDY    71  66  84 S7        30.05S                  
CONCORD        CLOUDY    67  65  93 SE6       30.06F                  
LACONIA        LGT RAIN  66  64  93 CALM      30.07F FOG              
PLYMOUTH       CLOUDY    66  62  89 CALM      30.07S                  
BERLIN         CLOUDY    68  62  81 SE3       30.06F                  
WHITEFIELD     CLOUDY    68  63  84 CALM      30.06S                  
JAFFREY        CLOUDY    68  64  87 S7        30.09F                  
KEENE          CLOUDY    69  66  90 S7        30.06F                  
LEBANON        CLOUDY    71  65  81 N3        30.04S                  
MT WASHINGTON  FOG       52  52 100 W31G38      N/A  VSB 1/16         
$$

VTZ005-007-008-171400-
VERMONT
  
CITY           SKY/WX    TMP DP  RH WIND       PRES   REMARKS
ST JOHNSBURY     N/A     66  64  93 MISG      30.03S                  
MONTPELIER     CLOUDY    69  66  90 S12       30.07F                  
BURLINGTON     PTSUNNY   74  66  76 S10       29.99R                  
$$

MAZ007-012-024-CTZ003-RIZ002-NYZ038-NYZ072-171400-
SOUTHERN NEW ENGLAND AND NY
  
CITY           SKY/WX    TMP DP  RH WIND       PRES   REMARKS
BOSTON         FOG       68  65  90 SE9       30.07F VSB 1/2          
WORCESTER      CLOUDY    67  66  97 S5        30.09S                  
NANTUCKET      FOG       65  65 100 E9        30.07F VSB 1/2          
PROVIDENCE     CLOUDY    72  69  90 SE8       30.06F                  
HARTFORD       CLOUDY    70  67  90 CALM      30.05S                  
ALBANY         CLOUDY    73  68  84 S9        30.02S                  
NEW YORK CITY  CLOUDY    75  70  84 NE8       30.02S                  
$$

ANZ081-ANZ082-ANZ150-NHZ014-MEZ023>029-171400-
COASTAL MARINE OBSERVATIONS
  
STATION/POSITION TIME  TEMP    WIND        PRES    WAVE
                       AIR SEA DIR/SP/G            HT/PER
                 (UTC) (F)     (DEG/KT/KT) (MB)    (FT/S)
MATINICUS ROCK   1250   60                 1019.3R
ISLE OF SHOALS   1200   64     140/ 11/ 11 1018.1R
JEFFREYS LEDGE   1238      65                N/A     2/ 7
CASHES LEDGE BUO 1250   64 64  140/  8/ 10 1019.7F   2/ 7
GEORGES BANK BUO 1250   69 70   50/  6/  8 1019.5F   4/ 7
$$

.............KEY..............
   WCI - WIND CHILL
   TC  - TEMPERATURE IN CELSIUS
   VSB - VISIBILITY IN MILES
   HX  - HEAT INDEX
   FAIR- INDICATES FEW OR NO CLOUDS BELOW 12,000 FT, WITH NO 
         SIGNIFICANT WEATHER AND/OR OBSTRUCTIONS TO VISIBILITY.